| time (UTC) | temp F | wind direction | speed MPH | gust MPH | rain 1hr in | rain 24hr in | rain mn in | humidity % | barometer mb |
| 20260504081525 | 69 | 96 | 0.0 | 2.0 | 0.00 | 0.00 | 0.00 | 23 | 1004.4 |
| 20260504050009 | 74 | 56 | 0.0 | 0.0 | 0.00 | 0.00 | 0.00 | 18 | 1003.3 |
| 20260504044513 | 74 | 83 | 0.0 | 0.0 | 0.00 | 0.00 | 0.00 | 20 | 1003.4 |
| 20260504043012 | 75 | 269 | 0.0 | 0.0 | 0.00 | 0.00 | 0.00 | 18 | 1003.4 |
| 20260504041525 | 77 | 269 | 0.0 | 0.0 | 0.00 | 0.00 | 0.00 | 17 | 1003.3 |
| 20260504040006 | 78 | 286 | 0.0 | 2.0 | 0.00 | 0.00 | 0.00 | 16 | 1003.2 |
| 20260504034505 | 78 | 274 | 0.0 | 1.0 | 0.00 | 0.00 | 0.00 | 16 | 1002.8 |
| 20260504033004 | 80 | 289 | 1.0 | 12.0 | 0.00 | 0.00 | 0.00 | 16 | 1002.3 |
| 20260504031504 | 81 | 245 | 0.0 | 10.0 | 0.00 | 0.00 | 0.00 | 15 | 1002.0 |
| 20260504030003 | 81 | 204 | 3.0 | 13.0 | 0.00 | 0.00 | 0.00 | 14 | 1001.8 |
| 20260504024503 | 81 | 159 | 1.0 | 0.0 | 0.00 | 0.00 | 0.00 | 13 | 1001.7 |
| 20260504023004 | 82 | 184 | 4.0 | 12.0 | 0.00 | 0.00 | 0.00 | 13 | 1001.5 |
| 20260504021600 | 83 | 174 | 7.0 | 15.0 | 0.00 | 0.00 | 0.00 | 13 | 1001.8 |
| 20260504020132 | 83 | 199 | 6.0 | 15.0 | 0.00 | 0.00 | 0.00 | 12 | 1001.7 |
| 20260504014602 | 83 | 160 | 1.0 | 6.0 | 0.00 | 0.00 | 0.00 | 13 | 1001.7 |
| 20260504013126 | 84 | 237 | 3.0 | 25.0 | 0.00 | 0.00 | 0.00 | 12 | 1001.8 |
| 20260504011558 | 85 | 186 | 4.0 | 12.0 | 0.00 | 0.00 | 0.00 | 11 | 1001.8 |
| 20260504010100 | 84 | 208 | 10.0 | 19.0 | 0.00 | 0.00 | 0.00 | 11 | 1001.8 |
| 20260504004556 | 85 | 197 | 5.0 | 9.0 | 0.00 | 0.00 | 0.00 | 11 | 1001.6 |
| 20260504003055 | 85 | 162 | 0.0 | 1.0 | 0.00 | 0.00 | 0.00 | 13 | 1001.9 |
| 20260504001554 | 82 | 265 | 0.0 | 9.0 | 0.00 | 0.00 | 0.00 | 14 | 1002.0 |
| 20260504000053 | 83 | 284 | 5.0 | 16.0 | 0.00 | 0.00 | 0.00 | 13 | 1002.3 |
| 20260503234552 | 84 | 217 | 5.0 | 16.0 | 0.00 | 0.00 | 0.00 | 12 | 1002.3 |
| 20260503233052 | 85 | 195 | 8.0 | 21.0 | 0.00 | 0.00 | 0.00 | 11 | 1002.2 |
| 20260503231550 | 86 | 155 | 6.0 | 12.0 | 0.00 | 0.00 | 0.00 | 12 | 1002.3 |
| 20260503230049 | 86 | 145 | 0.0 | 6.0 | 0.00 | 0.00 | 0.00 | 12 | 1002.5 |
| 20260503224555 | 85 | 210 | 3.0 | 14.0 | 0.00 | 0.00 | 0.00 | 13 | 1002.8 |
| 20260503223046 | 85 | 113 | 4.0 | 10.0 | 0.00 | 0.00 | 0.00 | 12 | 1002.9 |
| 20260503221556 | 85 | 127 | 1.0 | 3.0 | 0.00 | 0.00 | 0.00 | 12 | 1003.4 |
| 20260503220040 | 84 | 169 | 0.0 | 1.0 | 0.00 | 0.00 | 0.00 | 11 | 1003.6 |
| 20260503214541 | 85 | 212 | 0.0 | 8.0 | 0.00 | 0.00 | 0.00 | 12 | 1004.1 |
| 20260503213042 | 84 | 165 | 1.0 | 10.0 | 0.00 | 0.00 | 0.00 | 12 | 1004.4 |
| 20260503211532 | 84 | 215 | 2.0 | 47.0 | 0.00 | 0.00 | 0.00 | 13 | 1004.9 |
| 20260503210031 | 87 | 188 | 3.0 | 10.0 | 0.00 | 0.00 | 0.00 | 10 | 1005.0 |
| 20260503204530 | 86 | 146 | 5.0 | 10.0 | 0.00 | 0.00 | 0.00 | 10 | 1005.2 |
| 20260503203033 | 86 | 108 | 6.0 | 9.0 | 0.00 | 0.00 | 0.00 | 10 | 1005.7 |
| 20260503201522 | 85 | 139 | 2.0 | 12.0 | 0.00 | 0.00 | 0.00 | 10 | 1006.0 |
| 20260503200023 | 85 | 87 | 4.0 | 12.0 | 0.00 | 0.00 | 0.00 | 10 | 1006.5 |
| 20260503194519 | 85 | 144 | 6.0 | 12.0 | 0.00 | 0.00 | 0.00 | 10 | 1006.8 |
| 20260503193033 | 84 | 114 | 5.0 | 11.0 | 0.00 | 0.00 | 0.00 | 9 | 1007.1 |
| 20260503191532 | 84 | 103 | 5.0 | 9.0 | 0.00 | 0.00 | 0.00 | 10 | 1007.3 |
| 20260503190023 | 83 | 85 | 4.0 | 14.0 | 0.00 | 0.00 | 0.00 | 9 | 1007.6 |
| 20260503184510 | 84 | 76 | 5.0 | 11.0 | 0.00 | 0.00 | 0.00 | 8 | 1007.8 |
| 20260503183008 | 82 | 124 | 4.0 | 13.0 | 0.00 | 0.00 | 0.00 | 9 | 1008.2 |
| 20260503181506 | 82 | 101 | 6.0 | 12.0 | 0.00 | 0.00 | 0.00 | 8 | 1008.3 |
| 20260503180005 | 81 | 119 | 5.0 | 14.0 | 0.00 | 0.00 | 0.00 | 8 | 1008.5 |
| 20260503174605 | 81 | 149 | 7.0 | 13.0 | 0.00 | 0.00 | 0.00 | 9 | 1008.7 |
| 20260503174501 | 80 | 152 | 8.0 | 13.0 | 0.00 | 0.00 | 0.00 | 9 | 1008.6 |
| 20260503173105 | 80 | 100 | 6.0 | 12.0 | 0.00 | 0.00 | 0.00 | 9 | 1008.8 |
| 20260503171554 | 79 | 165 | 4.0 | 9.0 | 0.00 | 0.00 | 0.00 | 9 | 1009.0 |
| 20260503170105 | 78 | 105 | 3.0 | 9.0 | 0.00 | 0.00 | 0.00 | 10 | 1009.0 |